GFSFLT1_850_rhum_021.txt.gz
RH
45 42 41 38 38 40 46 39 31 29 29 29 30 31 34 36 38 39 40 40 41 41 41 41 40 38 36 36 37 38 39 38
33 27 24 23 27 36 38 32 28 29 30 31 32 33 34 36 38 40 41 42 43 44 44 45 43 43 42 40 39 41 42 42
19 18 20 22 26 32 32 31 32 34 35 35 36 35 35 36 38 42 45 46 47 48 47 47 49 49 46 46 47 48 46 43
23 25 24 26 28 30 31 34 36 36 36 36 38 40 41 41 42 46 47 49 49 48 45 47 47 46 50 52 49 51 55 51
28 29 30 31 32 33 34 35 37 39 42 46 49 50 50 49 48 48 46 43 44 45 46 47 48 48 48 50 57 53 54 67
29 30 33 36 38 40 42 43 45 48 50 49 48 48 46 44 41 39 37 32 30 29 34 45 46 45 45 48 52 59 65 75
37 39 43 46 49 48 48 48 47 45 45 47 51 52 45 38 35 31 28 26 26 30 38 42 42 43 46 55 63 79 87 91
48 49 49 49 48 47 46 45 45 46 48 51 50 40 38 41 41 41 40 41 38 43 50 52 52 54 62 79 90 92 96 92
54 54 53 53 52 53 53 49 47 48 46 41 35 39 49 44 42 44 46 47 46 53 58 58 65 75 86 94 97 100 100 99
53 50 54 58 60 59 57 54 48 46 39 35 38 47 53 56 51 47 46 52 57 66 72 79 91 99 100 100 99 99 99 97
50 51 58 62 69 73 61 63 66 53 52 57 64 72 69 60 52 50 61 64 74 86 95 99 99 100 99 97 77 69 74 82
67 68 68 76 79 68 47 48 56 70 73 73 75 78 72 62 55 65 68 74 91 100 100 97 100 99 97 97 93 90 84 78
70 71 68 67 68 52 41 44 49 63 74 81 82 74 64 61 63 78 78 99 100 96 99 98 98 96 96 88 84 75 68 65
76 73 59 60 61 55 51 47 53 69 87 87 79 69 67 68 83 83 81 91 96 98 98 91 75 79 79 76 69 66 61 54
76 68 66 64 68 66 67 65 67 85 88 84 80 77 80 93 91 96 94 98 96 90 88 80 73 80 82 81 70 56 47 44
85 74 68 71 71 60 42 39 50 76 88 80 92 98 98 93 88 95 91 84 81 78 96 95 93 72 64 60 52 50 49 44
77 75 64 69 49 40 48 59 69 92 85 90 99 99 99 99 97 70 76 78 74 70 68 66 64 59 56 56 54 52 44 44
66 71 68 44 40 47 57 64 72 81 84 84 96 83 78 80 81 78 72 66 65 64 62 59 56 56 56 54 51 48 58 78
59 72 48 38 41 54 72 77 91 83 80 76 79 78 75 69 61 52 47 49 54 58 59 60 58 56 56 53 52 55 88 96

GFSFLT1_850_rhum_024.txt.gz
RH
45 47 43 42 48 44 50 66 62 41 34 31 32 32 32 35 40 38 38 40 42 43 44 47 65 73 70 70 75 72 72 62
37 41 38 33 29 38 61 68 64 44 49 50 52 51 48 46 48 48 42 46 48 46 47 48 50 74 76 75 75 80 80 73
36 41 29 31 34 39 47 46 44 43 44 39 37 37 44 47 50 64 64 50 46 46 46 50 64 71 76 80 85 81 78 75
34 40 35 33 33 36 41 42 41 38 38 52 58 56 55 54 57 56 47 41 36 34 32 32 35 45 71 76 80 81 79 78
37 42 40 34 34 36 39 42 46 46 48 50 46 58 59 61 68 68 56 45 37 39 47 51 48 64 70 74 75 82 82 77
44 50 55 58 47 48 49 60 50 48 48 52 60 66 66 68 61 61 62 59 58 57 64 27 31 51 66 72 83 91 88 84
51 53 54 58 64 62 64 64 63 49 48 49 48 44 52 61 60 57 52 51 51 57 66 40 44 53 58 62 81 97 98 100
51 52 54 60 64 67 63 65 62 63 59 55 58 54 57 58 60 59 65 60 58 64 62 75 90 89 87 80 80 89 98 99
52 54 58 62 68 70 72 69 65 64 61 58 37 26 51 65 71 74 70 69 72 87 94 97 99 98 99 99 98 99 100 100
50 53 59 62 66 71 74 66 62 62 62 63 66 74 79 85 83 75 70 69 82 95 99 100 100 100 97 100 99 98 76 84
54 57 61 64 66 68 74 69 69 72 76 84 84 92 92 90 82 78 81 89 99 100 99 100 100 99 98 98 98 99 98 98
59 62 66 68 67 65 63 70 76 79 84 86 91 94 96 87 83 86 96 100 98 98 99 98 98 96 95 96 95 97 98 97
56 61 64 59 60 59 69 78 78 76 75 80 86 90 93 85 91 96 98 100 96 94 98 98 94 99 98 98 93 90 83 77
56 59 60 60 57 67 70 62 58 60 68 76 81 84 90 95 100 92 87 88 91 93 98 98 93 87 83 82 79 80 80 76
61 64 62 57 66 63 52 56 66 74 82 81 79 97 92 97 99 92 99 98 96 97 97 95 96 97 88 80 79 78 77 74
67 68 58 63 57 53 58 70 79 85 82 79 89 100 98 99 99 96 96 96 93 92 88 82 81 80 66 64 59 77 74 71
75 66 63 63 60 61 71 79 86 87 82 80 98 99 98 99 100 93 80 74 69 71 72 76 76 73 78 62 54 66 76 78
65 63 68 65 67 68 74 84 84 84 83 84 85 84 83 80 74 71 72 75 70 71 74 78 81 83 83 62 54 54 87 88
63 71 67 68 66 62 73 75 84 85 83 87 83 84 78 77 75 78 76 70 72 75 78 82 84 82 86 64 59 70 96 94

GFSFLT1_850_rhum_027.txt.gz
RH
30 41 37 38 44 53 58 61 68 71 67 63 53 54 52 51 49 48 57 62 66 70 71 72 72 70 67 67 68 68 67 67
37 42 43 41 49 50 58 63 70 69 60 54 48 47 47 47 47 55 68 68 72 72 68 66 66 65 64 67 70 75 77 73
37 43 48 50 52 53 54 55 58 54 47 52 52 50 53 56 58 61 61 64 56 60 64 64 61 63 62 64 69 74 75 74
36 44 52 55 55 52 53 56 58 56 44 52 53 50 50 50 52 59 63 64 68 66 65 64 69 69 64 62 64 67 70 69
37 44 50 58 60 59 56 57 57 61 52 59 66 62 60 60 67 67 68 68 62 58 56 59 68 77 73 71 65 66 71 72
42 44 52 59 64 65 63 56 59 64 64 59 72 70 67 61 60 61 60 51 55 54 54 59 67 78 79 86 88 85 83 81
43 46 47 51 61 64 63 59 56 58 65 67 68 69 65 59 58 59 55 62 59 59 62 71 81 83 84 88 93 98 97 92
42 44 47 53 58 61 63 59 59 58 61 62 63 65 64 60 63 65 74 69 62 59 69 82 83 91 92 98 99 99 98 92
42 44 48 52 54 59 66 64 57 54 58 62 64 68 68 73 76 81 77 69 69 73 82 94 96 95 99 100 99 98 94 88
41 45 48 53 52 54 60 64 60 60 63 67 73 78 78 78 81 82 75 76 76 83 89 97 98 97 93 92 98 98 99 96
45 46 48 53 55 56 59 58 58 63 68 75 72 73 71 75 78 75 75 80 89 92 91 98 96 88 91 87 85 93 95 97
44 46 49 52 52 53 54 60 65 62 57 55 58 64 69 71 71 74 84 91 96 98 88 85 90 96 100 100 99 98 97 91
44 47 50 54 52 52 56 59 48 46 47 50 58 66 67 70 80 79 94 98 99 99 95 98 99 97 86 83 83 80 77 78
43 49 54 55 52 54 53 42 47 53 58 62 64 66 81 87 93 96 99 99 98 97 99 98 94 83 78 78 73 71 66 63
46 51 55 54 53 52 46 45 54 63 64 64 64 79 92 97 92 89 99 98 98 94 88 82 70 63 62 60 60 73 72 66
53 59 60 54 53 50 49 52 57 64 67 65 66 83 96 92 96 94 92 86 73 67 64 62 60 60 56 59 65 76 76 71
67 64 60 60 50 52 51 52 60 65 64 63 69 81 81 82 84 81 76 75 76 64 59 60 61 59 65 70 73 73 77 81
66 67 68 62 53 54 49 52 53 59 64 61 71 76 77 80 77 76 74 70 59 60 60 61 64 66 72 78 77 76 85 90
75 78 66 52 56 56 48 51 49 52 53 61 66 80 84 78 70 68 62 57 61 61 63 67 70 71 90 88 83 88 97 94

GFSFLT1_850_rhum_030.txt.gz
RH
29 34 37 38 41 45 48 54 62 70 69 64 57 52 52 52 50 49 51 54 58 58 49 52 53 61 62 64 67 66 71 71
44 44 43 44 45 52 57 63 62 69 64 58 53 50 48 49 48 51 54 59 57 55 55 55 58 62 63 62 61 59 61 71
45 50 47 46 50 52 53 57 57 51 50 51 49 50 49 50 52 58 57 62 64 65 68 65 67 64 59 55 59 69 71 73
46 54 56 56 54 53 54 56 57 48 45 53 55 52 51 52 55 54 58 65 69 67 62 58 56 59 65 68 51 56 70 73
43 50 58 62 62 59 57 57 58 58 50 56 62 63 67 64 60 60 63 65 55 55 56 56 57 58 62 62 77 77 77 78
42 49 57 63 64 65 62 57 55 58 63 67 68 70 67 65 60 59 59 58 58 62 60 60 60 58 63 87 93 92 94 98
42 44 46 53 59 62 64 58 58 58 59 63 63 65 66 65 63 65 68 70 74 68 62 57 69 79 84 89 92 80 83 87
40 42 45 49 54 58 62 64 61 56 55 58 63 65 68 70 72 76 80 82 75 70 72 76 84 87 82 83 77 75 86 93
39 42 46 50 51 52 56 60 62 59 60 63 67 73 76 78 76 80 79 79 76 80 84 90 87 82 82 96 99 97 79 94
40 44 45 48 52 54 56 59 58 57 62 66 71 68 71 72 71 74 76 74 79 83 81 78 86 88 96 83 82 74 78 99
40 43 44 48 51 51 53 54 58 62 61 56 53 53 57 63 67 71 71 77 76 77 84 90 81 77 84 81 78 92 93 85
39 41 45 50 54 53 52 54 59 52 46 48 48 54 61 66 69 74 79 77 70 87 95 89 89 94 93 96 94 84 86 83
40 44 50 53 54 53 52 56 46 46 49 56 60 63 64 72 77 83 76 93 95 92 87 88 94 89 77 78 78 79 68 78
41 46 52 55 55 53 54 48 45 50 56 60 62 63 73 76 72 93 75 81 89 85 81 78 84 78 69 64 61 63 67 71
48 53 57 58 56 54 53 49 48 52 57 62 63 63 76 69 83 83 82 80 82 80 74 70 68 62 61 60 60 64 64 63
66 65 60 58 59 59 50 51 49 51 56 62 62 64 79 69 74 82 83 79 78 74 69 61 58 59 60 60 62 66 70 67
75 64 65 68 66 57 51 52 48 49 51 55 59 62 71 79 81 82 80 76 76 66 58 60 61 64 67 66 70 74 75 75
73 72 72 72 66 51 53 54 49 50 47 48 52 71 75 66 72 78 76 72 63 58 61 62 67 71 76 81 83 90 88 85
78 72 67 66 53 51 51 52 52 51 48 45 47 64 66 72 83 72 74 62 59 61 61 66 69 68 74 86 91 86 81 82

GFSFLT1_850_rhum_033.txt.gz
RH
40 43 43 44 45 48 55 61 67 74 65 65 63 57 55 57 56 55 56 56 54 53 52 53 57 60 63 64 63 65 66 65
46 46 44 44 48 47 49 56 66 65 66 64 58 58 53 50 49 50 55 58 61 60 63 68 67 64 62 58 56 51 48 52
43 48 49 49 49 50 47 48 57 54 50 51 53 52 46 50 52 63 64 65 68 70 69 67 64 57 55 57 58 61 50 40
50 48 48 44 43 43 40 40 41 43 47 49 52 52 54 57 59 63 62 63 65 62 57 58 57 55 56 58 58 47 51 76
52 56 54 50 52 53 55 55 54 54 54 55 55 54 56 62 61 57 58 60 59 57 57 59 60 60 49 45 61 81 94 94
50 50 50 53 53 53 55 57 59 59 59 60 62 64 65 66 66 64 63 64 63 65 67 65 56 51 73 82 92 93 83 77
45 47 52 54 57 58 61 60 61 59 57 61 64 65 66 67 69 70 72 76 80 78 71 62 66 74 84 90 79 79 76 80
44 47 51 54 56 60 59 61 62 62 58 57 61 68 74 76 77 77 76 76 76 74 58 60 67 77 73 76 81 78 80 74
41 44 47 50 51 50 51 52 54 57 58 62 66 66 64 66 68 71 70 70 70 67 74 75 73 72 80 86 86 76 68 65
41 44 45 45 48 52 53 55 56 57 60 62 61 54 52 49 55 61 67 73 74 78 75 70 78 73 75 81 78 69 70 74
42 43 46 49 51 53 54 53 53 58 60 57 52 46 43 47 60 67 69 74 78 77 80 81 84 89 83 89 91 83 82 79
39 42 46 50 53 54 54 53 54 56 51 46 43 40 59 63 64 66 69 60 74 84 84 88 91 89 84 84 92 85 84 83
43 45 49 53 56 55 54 54 55 48 48 45 50 59 61 64 65 71 63 77 71 82 92 88 81 79 80 77 68 66 67 66
54 56 60 59 58 56 55 54 52 51 50 50 54 61 64 63 66 68 52 69 75 77 82 79 75 69 63 60 60 62 63 67
60 61 65 64 60 62 61 53 51 51 50 49 45 56 63 62 70 62 53 70 80 80 80 79 64 60 61 63 64 64 64 66
68 69 67 62 63 65 62 53 52 52 50 48 48 51 55 62 73 64 62 65 79 80 80 69 62 62 64 67 68 69 68 72
71 65 56 56 60 60 60 52 50 55 55 54 50 48 58 66 71 54 60 75 79 75 68 61 61 63 66 70 71 66 73 82
70 56 53 50 45 43 53 51 50 59 62 64 62 64 63 86 76 83 69 74 74 67 62 61 63 65 71 72 69 69 80 82
45 43 42 43 48 50 42 42 42 44 48 51 62 70 83 90 97 81 76 76 72 61 62 63 66 69 77 72 75 83 80 81